| time (UTC) | temp F | wind direction | speed MPH | gust MPH | rain 1hr in | rain 24hr in | rain mn in | humidity % | barometer mb |
| 20260507190015 | 60 | 302 | 7.0 | 16.0 | 260.27 | 0.00 | 0.00 | ||
| 20260507183016 | 63 | 284 | 7.0 | 15.0 | 260.27 | 0.00 | 0.00 | ||
| 20260507181015 | 64 | 281 | 8.0 | 16.0 | 260.27 | 0.00 | 0.00 | ||
| 20260507180015 | 65 | 294 | 5.0 | 14.0 | 260.27 | 0.00 | 0.00 | ||
| 20260507174015 | 62 | 281 | 9.0 | 25.0 | 260.27 | 0.00 | 0.00 | ||
| 20260507173015 | 63 | 281 | 7.0 | 20.0 | 260.27 | 0.00 | 0.00 | ||
| 20260507172015 | 62 | 305 | 6.0 | 16.0 | 260.27 | 0.00 | 0.00 | ||
| 20260507171015 | 64 | 290 | 3.0 | 11.0 | 260.27 | 0.00 | 0.00 | ||
| 20260507164015 | 61 | 336 | 6.0 | 20.0 | 260.27 | 0.00 | 0.00 | ||
| 20260507161015 | 57 | 322 | 6.0 | 14.0 | 260.27 | 0.00 | 0.00 | ||
| 20260507151515 | 58 | 311 | 5.0 | 13.0 | 260.27 | 0.00 | 0.00 | ||
| 20260507150015 | 58 | 293 | 7.0 | 14.0 | 260.27 | 0.00 | 0.00 | ||
| 20260507144015 | 62 | 271 | 8.0 | 18.0 | 260.27 | 0.00 | 0.00 | ||
| 20260507143015 | 63 | 332 | 10.0 | 21.0 | 260.27 | 0.00 | 0.00 | ||
| 20260507135015 | 65 | 260 | 5.0 | 10.0 | 260.27 | 0.00 | 0.00 | ||
| 20260507134515 | 64 | 281 | 5.0 | 12.0 | 260.27 | 0.00 | 0.00 | ||
| 20260507133515 | 59 | 291 | 6.0 | 16.0 | 260.27 | 0.00 | 0.00 | ||
| 20260507132015 | 59 | 307 | 5.0 | 9.0 | 260.27 | 0.00 | 0.00 | ||
| 20260507125515 | 52 | 291 | 4.0 | 9.0 | 260.27 | 0.00 | 0.00 | ||
| 20260507124015 | 51 | 307 | 4.0 | 9.0 | 260.27 | 0.00 | 0.00 | ||
| 20260507122015 | 51 | 291 | 3.0 | 7.0 | 260.27 | 0.00 | 0.00 | ||
| 20260507120015 | 47 | 308 | 2.0 | 5.0 | 260.27 | 0.00 | 0.00 | ||
| 20260507114015 | 47 | 253 | 2.0 | 3.0 | 260.27 | 0.00 | 0.00 | ||
| 20260507113515 | 46 | 278 | 3.0 | 7.0 | 260.27 | 0.00 | 0.00 | ||
| 20260507113015 | 46 | 283 | 3.0 | 6.0 | 260.27 | 0.00 | 0.00 | ||
| 20260507112015 | 45 | 280 | 4.0 | 8.0 | 260.27 | 0.00 | 0.00 | ||
| 20260507110015 | 45 | 284 | 0.0 | 2.0 | 260.27 | 0.00 | 0.00 | ||
| 20260507105016 | 45 | 0 | 0.0 | 0.0 | 260.27 | 0.00 | 0.00 | ||
| 20260507104016 | 44 | 0 | 0.0 | 0.0 | 260.27 | 0.00 | 0.00 | ||
| 20260507100015 | 44 | 312 | 1.0 | 4.0 | 260.27 | 0.00 | 0.00 | ||
| 20260507094015 | 44 | 0 | 0.0 | 0.0 | 260.27 | 0.00 | 0.00 | ||
| 20260507093515 | 44 | 302 | 1.0 | 3.0 | 260.27 | 0.00 | 0.00 | ||
| 20260507093015 | 45 | 231 | 1.0 | 3.0 | 260.27 | 0.00 | 0.00 | ||
| 20260507092515 | 44 | 311 | 2.0 | 5.0 | 260.27 | 0.00 | 0.00 | ||
| 20260507092015 | 44 | 298 | 1.0 | 3.0 | 260.27 | 0.00 | 0.00 | ||
| 20260507091515 | 44 | 294 | 1.0 | 3.0 | 260.27 | 0.00 | 0.00 | ||
| 20260507090515 | 45 | 309 | 1.0 | 6.0 | 260.27 | 0.00 | 0.00 | ||
| 20260507090015 | 45 | 326 | 3.0 | 6.0 | 260.27 | 0.00 | 0.00 | ||
| 20260507085016 | 45 | 281 | 2.0 | 6.0 | 260.27 | 0.00 | 0.00 | ||
| 20260507084015 | 45 | 297 | 1.0 | 5.0 | 260.27 | 0.00 | 0.00 | ||
| 20260507083015 | 44 | 333 | 3.0 | 7.0 | 260.27 | 0.00 | 0.00 | ||
| 20260507082015 | 45 | 300 | 3.0 | 5.0 | 260.27 | 0.00 | 0.00 | ||
| 20260507081015 | 45 | 264 | 2.0 | 4.0 | 260.27 | 0.00 | 0.00 | ||
| 20260507075515 | 44 | 328 | 3.0 | 6.0 | 260.27 | 0.00 | 0.00 | ||
| 20260507075015 | 45 | 326 | 3.0 | 7.0 | 260.27 | 0.00 | 0.00 | ||
| 20260507074016 | 45 | 338 | 2.0 | 4.0 | 260.27 | 0.00 | 0.00 | ||
| 20260507073015 | 45 | 297 | 3.0 | 6.0 | 260.27 | 0.00 | 0.00 | ||
| 20260507072515 | 46 | 300 | 3.0 | 6.0 | 260.27 | 0.00 | 0.00 | ||
| 20260507072015 | 47 | 295 | 3.0 | 6.0 | 260.27 | 0.00 | 0.00 | ||
| 20260507071015 | 46 | 297 | 4.0 | 7.0 | 260.27 | 0.00 | 0.00 | ||
| 20260507070015 | 46 | 302 | 5.0 | 11.0 | 260.27 | 0.00 | 0.00 | ||
| 20260507065015 | 46 | 274 | 5.0 | 10.0 | 260.27 | 0.00 | 0.00 | ||
| 20260507064015 | 47 | 290 | 5.0 | 11.0 | 260.27 | 0.00 | 0.00 | ||
| 20260507063015 | 47 | 283 | 7.0 | 13.0 | 260.27 | 0.00 | 0.00 | ||
| 20260507061015 | 47 | 280 | 6.0 | 10.0 | 260.27 | 0.00 | 0.00 | ||
| 20260507060015 | 47 | 294 | 6.0 | 13.0 | 260.27 | 0.00 | 0.00 | ||
| 20260507055515 | 47 | 250 | 5.0 | 12.0 | 260.27 | 0.00 | 0.00 | ||
| 20260507055015 | 48 | 269 | 4.0 | 11.0 | 260.27 | 0.00 | 0.00 | ||
| 20260507054516 | 48 | 298 | 3.0 | 10.0 | 260.27 | 0.00 | 0.00 | ||
| 20260507054015 | 48 | 267 | 3.0 | 9.0 | 260.27 | 0.00 | 0.00 | ||
| 20260507052015 | 48 | 342 | 2.0 | 5.0 | 260.27 | 0.00 | 0.00 | ||
| 20260507051015 | 49 | 297 | 0.0 | 9.0 | 260.27 | 0.00 | 0.00 | ||
| 20260507050015 | 48 | 300 | 4.0 | 9.0 | 260.27 | 0.00 | 0.00 | ||
| 20260507045015 | 49 | 287 | 3.0 | 10.0 | 260.27 | 0.00 | 0.00 | ||
| 20260507044515 | 49 | 300 | 0.0 | 4.0 | 260.27 | 0.00 | 0.00 | ||
| 20260507044015 | 49 | 280 | 2.0 | 6.0 | 260.27 | 0.00 | 0.00 | ||
| 20260507043515 | 49 | 297 | 2.0 | 5.0 | 260.27 | 0.00 | 0.00 | ||
| 20260507042015 | 49 | 325 | 5.0 | 10.0 | 260.27 | 0.00 | 0.00 | ||
| 20260507041015 | 49 | 308 | 5.0 | 11.0 | 260.27 | 0.00 | 0.00 | ||
| 20260507040015 | 49 | 278 | 4.0 | 9.0 | 260.27 | 0.00 | 0.00 | ||
| 20260507035515 | 49 | 280 | 5.0 | 9.0 | 260.27 | 0.00 | 0.00 | ||
| 20260507034515 | 50 | 323 | 5.0 | 10.0 | 260.27 | 0.00 | 0.00 | ||
| 20260507034015 | 51 | 271 | 4.0 | 10.0 | 260.27 | 0.00 | 0.00 | ||
| 20260507033015 | 51 | 274 | 5.0 | 11.0 | 260.27 | 0.00 | 0.34 | ||
| 20260507032515 | 50 | 312 | 4.0 | 12.0 | 260.27 | 0.00 | 0.34 | ||
| 20260507032015 | 50 | 266 | 5.0 | 10.0 | 260.26 | 0.00 | 0.33 | ||
| 20260507031515 | 51 | 281 | 6.0 | 16.0 | 260.26 | 0.00 | 0.33 | ||
| 20260507031015 | 51 | 277 | 7.0 | 15.0 | 260.26 | 0.00 | 0.33 | ||
| 20260507030015 | 51 | 311 | 5.0 | 9.0 | 260.25 | 0.00 | 0.32 | ||
| 20260507025516 | 51 | 226 | 6.0 | 12.0 | 260.25 | 0.00 | 0.32 | ||
| 20260507024515 | 52 | 269 | 7.0 | 14.0 | 260.25 | 0.00 | 0.32 | ||
| 20260507024015 | 52 | 287 | 7.0 | 14.0 | 260.25 | 0.00 | 0.32 | ||
| 20260507021515 | 54 | 288 | 6.0 | 14.0 | 260.25 | 0.00 | 0.32 | ||
| 20260507021015 | 54 | 287 | 5.0 | 14.0 | 260.25 | 0.00 | 0.32 | ||
| 20260507020015 | 55 | 278 | 6.0 | 9.0 | 260.25 | 0.00 | 0.32 | ||
| 20260507015015 | 56 | 273 | 7.0 | 15.0 | 260.25 | 0.00 | 0.32 | ||
| 20260507014015 | 56 | 274 | 5.0 | 8.0 | 260.25 | 0.00 | 0.32 | ||
| 20260507013515 | 56 | 315 | 6.0 | 12.0 | 260.24 | 0.00 | 0.31 | ||
| 20260507013015 | 56 | 278 | 5.0 | 11.0 | 260.24 | 0.00 | 0.31 | ||
| 20260507012015 | 57 | 276 | 6.0 | 10.0 | 260.24 | 0.00 | 0.31 | ||
| 20260507010515 | 57 | 281 | 5.0 | 13.0 | 260.24 | 0.00 | 0.31 | ||
| 20260507010015 | 58 | 260 | 6.0 | 14.0 | 260.23 | 0.00 | 0.30 | ||
| 20260507005515 | 58 | 309 | 5.0 | 12.0 | 260.22 | 0.00 | 0.29 | ||
| 20260507005015 | 58 | 266 | 5.0 | 9.0 | 260.22 | 0.00 | 0.29 | ||
| 20260507004015 | 58 | 277 | 4.0 | 10.0 | 260.21 | 0.00 | 0.28 | ||
| 20260507003515 | 58 | 250 | 2.0 | 11.0 | 260.21 | 0.00 | 0.28 | ||
| 20260507003015 | 58 | 249 | 5.0 | 11.0 | 260.21 | 0.00 | 0.28 | ||
| 20260507001516 | 58 | 274 | 4.0 | 8.0 | 260.21 | 0.00 | 0.28 | ||
| 20260507001015 | 58 | 277 | 4.0 | 7.0 | 260.20 | 0.00 | 0.27 | ||
| 20260507000015 | 58 | 252 | 4.0 | 10.0 | 260.20 | 0.00 | 0.27 | ||
| 20260506235515 | 58 | 225 | 4.0 | 9.0 | 260.20 | 0.00 | 0.27 | ||
| 20260506235015 | 58 | 127 | 6.0 | 14.0 | 260.20 | 0.00 | 0.27 | ||
| 20260506234016 | 58 | 136 | 4.0 | 9.0 | 260.19 | 0.00 | 0.26 | ||
| 20260506232016 | 58 | 117 | 5.0 | 16.0 | 260.19 | 0.00 | 0.26 | ||
| 20260506231515 | 59 | 224 | 5.0 | 11.0 | 260.19 | 0.00 | 0.26 | ||
| 20260506231015 | 59 | 225 | 6.0 | 13.0 | 260.19 | 0.00 | 0.26 | ||
| 20260506225015 | 59 | 242 | 5.0 | 11.0 | 260.19 | 0.00 | 0.26 | ||
| 20260506224015 | 59 | 231 | 4.0 | 11.0 | 260.19 | 0.00 | 0.26 | ||
| 20260506223516 | 59 | 135 | 5.0 | 9.0 | 260.19 | 0.00 | 0.26 | ||
| 20260506223015 | 59 | 240 | 5.0 | 11.0 | 260.19 | 0.00 | 0.26 | ||
| 20260506222516 | 59 | 232 | 5.0 | 11.0 | 260.19 | 0.00 | 0.26 | ||
| 20260506220016 | 59 | 263 | 5.0 | 12.0 | 260.19 | 0.00 | 0.26 | ||
| 20260506215016 | 60 | 235 | 5.0 | 13.0 | 260.19 | 0.00 | 0.26 | ||
| 20260506212017 | 59 | 108 | 5.0 | 11.0 | 260.19 | 0.00 | 0.26 | ||
| 20260506211016 | 60 | 214 | 5.0 | 14.0 | 260.19 | 0.00 | 0.26 | ||
| 20260506210517 | 60 | 221 | 4.0 | 9.0 | 260.19 | 0.00 | 0.26 | ||
| 20260506204516 | 61 | 215 | 3.0 | 7.0 | 260.18 | 0.00 | 0.25 | ||
| 20260506204017 | 61 | 212 | 3.0 | 8.0 | 260.18 | 0.00 | 0.25 | ||
| 20260506203516 | 61 | 201 | 3.0 | 6.0 | 260.18 | 0.00 | 0.25 | ||
| 20260506203016 | 61 | 228 | 4.0 | 9.0 | 260.18 | 0.00 | 0.25 | ||
| 20260506202016 | 60 | 231 | 3.0 | 9.0 | 260.17 | 0.00 | 0.24 | ||
| 20260506200516 | 61 | 236 | 3.0 | 8.0 | 260.12 | 0.00 | 0.19 | ||
| 20260506200016 | 61 | 242 | 4.0 | 6.0 | 260.11 | 0.00 | 0.18 | ||
| 20260506194519 | 61 | 278 | 3.0 | 5.0 | 260.07 | 0.00 | 0.14 | ||
| 20260506193516 | 61 | 226 | 4.0 | 11.0 | 260.06 | 0.00 | 0.13 | ||
| 20260506193016 | 61 | 277 | 6.0 | 11.0 | 260.05 | 0.00 | 0.12 |